1585951207,2020-04-04 00:00,35.11,994.16,1019.94,214,9.96,-4.75,-22,1
1585951267,2020-04-04 00:01,35.06,994.19,1019.97,214,10.02,-4.72,-20,1
1585951327,2020-04-04 00:02,35.04,994.13,1019.91,214,10.09,-4.66,-22,1
1585951388,2020-04-04 00:03,35.32,994.17,1019.96,214,10.11,-4.54,-21,1
1585951448,2020-04-04 00:04,35.00,994.16,1019.94,214,10.08,-4.68,-20,1
1585951508,2020-04-04 00:05,35.22,994.23,1020.02,214,10.06,-4.62,-22,1
1585951569,2020-04-04 00:06,34.97,994.25,1020.03,214,10.00,-4.77,-21,1
1585951629,2020-04-04 00:07,35.08,994.20,1019.98,214,10.04,-4.69,-21,1
1585951689,2020-04-04 00:08,35.20,994.27,1020.06,214,9.98,-4.70,-20,1
1585951749,2020-04-04 00:09,35.41,994.27,1020.06,214,10.01,-4.59,-21,1
1585951810,2020-04-04 00:10,35.34,994.28,1020.06,214,9.97,-4.66,-20,1
1585951870,2020-04-04 00:11,35.50,994.29,1020.08,214,9.89,-4.67,-22,1
1585951930,2020-04-04 00:12,35.25,994.28,1020.06,214,9.95,-4.71,-22,1
1585951990,2020-04-04 00:13,35.34,994.28,1020.07,214,9.95,-4.67,-23,1
1585952051,2020-04-04 00:14,35.66,994.31,1020.10,214,10.01,-4.50,-23,1
1585952111,2020-04-04 00:15,35.63,994.27,1020.05,214,9.89,-4.62,-21,1
1585952171,2020-04-04 00:16,35.65,994.33,1020.11,214,9.94,-4.57,-21,1
1585952232,2020-04-04 00:17,35.68,994.33,1020.11,214,9.97,-4.53,-20,1
1585952292,2020-04-04 00:18,35.77,994.29,1020.08,214,9.95,-4.51,-20,1
1585952352,2020-04-04 00:19,35.56,994.33,1020.11,214,9.95,-4.59,-21,1
1585952412,2020-04-04 00:20,35.81,994.37,1020.15,214,9.85,-4.59,-20,1
1585952473,2020-04-04 00:21,35.94,994.38,1020.17,214,9.81,-4.57,-20,1
1585952533,2020-04-04 00:22,36.02,994.39,1020.17,214,9.78,-4.57,-20,1
1585952593,2020-04-04 00:23,36.15,994.44,1020.22,214,9.73,-4.57,-21,1
1585952653,2020-04-04 00:24,36.23,994.44,1020.23,214,9.80,-4.48,-21,1
1585952714,2020-04-04 00:25,36.08,994.41,1020.19,214,9.78,-4.55,-20,1
1585952774,2020-04-04 00:26,36.60,994.46,1020.24,214,9.51,-4.60,-22,1
1585952834,2020-04-04 00:27,36.55,994.41,1020.20,214,9.60,-4.54,-22,1
1585952895,2020-04-04 00:28,36.65,994.44,1020.22,214,9.61,-4.49,-20,1
1585952955,2020-04-04 00:29,36.67,994.47,1020.26,214,9.58,-4.51,-21,1
1585953015,2020-04-04 00:30,36.54,994.50,1020.28,214,9.68,-4.47,-22,1
1585953075,2020-04-04 00:31,36.52,994.48,1020.26,214,9.71,-4.45,-21,1
1585953136,2020-04-04 00:32,36.48,994.47,1020.26,214,9.74,-4.44,-21,1
1585953196,2020-04-04 00:33,36.91,994.46,1020.25,214,9.66,-4.36,-21,1
1585953256,2020-04-04 00:34,36.57,994.53,1020.31,214,9.72,-4.42,-21,1
1585953317,2020-04-04 00:35,36.59,994.48,1020.26,214,9.60,-4.52,-20,1
1585953377,2020-04-04 00:36,36.56,994.53,1020.31,214,9.67,-4.47,-21,1
1585953437,2020-04-04 00:37,36.60,994.58,1020.36,214,9.55,-4.56,-18,1
1585953497,2020-04-04 00:38,37.24,994.64,1020.42,214,9.20,-4.65,-21,1
1585953558,2020-04-04 00:39,37.52,994.62,1020.40,214,9.19,-4.56,-21,1
1585953618,2020-04-04 00:40,37.68,994.68,1020.46,214,9.15,-4.54,-20,1
1585953678,2020-04-04 00:41,37.46,994.64,1020.42,214,9.26,-4.52,-22,1
1585953739,2020-04-04 00:42,37.64,994.66,1020.44,214,9.18,-4.52,-21,1
1585953799,2020-04-04 00:43,37.77,994.62,1020.41,214,9.15,-4.50,-21,1
1585953859,2020-04-04 00:44,37.53,994.63,1020.42,214,9.31,-4.45,-21,1
1585953919,2020-04-04 00:45,37.48,994.66,1020.44,214,9.36,-4.42,-21,1
1585953980,2020-04-04 00:46,37.70,994.71,1020.50,214,9.27,-4.42,-22,1
1585954040,2020-04-04 00:47,37.82,994.72,1020.50,214,9.18,-4.46,-20,1
1585954100,2020-04-04 00:48,37.77,994.69,1020.48,214,9.28,-4.39,-21,1
1585954161,2020-04-04 00:49,37.82,994.72,1020.50,214,9.28,-4.37,-21,1
1585954221,2020-04-04 00:50,37.92,994.74,1020.52,214,9.23,-4.38,-21,1
1585954281,2020-04-04 00:51,37.64,994.69,1020.48,214,9.36,-4.36,-24,1
1585954341,2020-04-04 00:52,37.68,994.75,1020.54,214,9.39,-4.32,-21,1
1585954402,2020-04-04 00:53,38.29,994.71,1020.49,214,9.06,-4.40,-21,1
1585954462,2020-04-04 00:54,38.77,994.76,1020.54,214,8.99,-4.30,-22,1
1585954522,2020-04-04 00:55,38.70,994.82,1020.60,214,8.86,-4.44,-21,1
1585954582,2020-04-04 00:56,39.07,994.81,1020.59,214,8.79,-4.38,-21,1
1585954643,2020-04-04 00:57,39.15,994.74,1020.53,214,8.80,-4.34,-19,1
1585954703,2020-04-04 00:58,39.45,994.79,1020.57,214,8.73,-4.30,-22,1
1585954763,2020-04-04 00:59,39.47,994.76,1020.55,214,8.76,-4.27,-21,1
1585954824,2020-04-04 01:00,39.80,994.83,1020.61,214,8.57,-4.33,-20,1
1585954884,2020-04-04 01:01,39.17,994.78,1020.57,214,8.86,-4.28,-23,1
1585954944,2020-04-04 01:02,39.47,994.87,1020.65,214,8.74,-4.29,-20,1
1585955004,2020-04-04 01:03,39.49,994.85,1020.64,214,8.86,-4.17,-21,1
1585955065,2020-04-04 01:04,38.95,994.93,1020.71,214,8.96,-4.27,-21,1
1585955125,2020-04-04 01:05,39.22,994.89,1020.68,214,8.82,-4.30,-23,1
1585955185,2020-04-04 01:06,39.19,994.91,1020.69,214,8.85,-4.28,-22,1
1585955246,2020-04-04 01:07,39.12,994.91,1020.69,214,8.97,-4.20,-20,1
1585955306,2020-04-04 01:08,39.13,994.92,1020.70,214,8.89,-4.27,-21,1
1585955366,2020-04-04 01:09,38.88,994.90,1020.68,214,8.95,-4.30,-21,1
1585955426,2020-04-04 01:10,38.58,994.98,1020.76,214,8.96,-4.39,-23,1
1585955487,2020-04-04 01:11,38.77,994.98,1020.77,214,9.04,-4.26,-22,1
1585955547,2020-04-04 01:12,38.81,994.99,1020.78,214,9.08,-4.21,-20,1
1585955607,2020-04-04 01:13,38.98,994.93,1020.72,214,9.09,-4.14,-23,1
1585955667,2020-04-04 01:14,38.94,994.95,1020.73,214,8.99,-4.24,-21,1
1585955728,2020-04-04 01:15,38.72,995.03,1020.81,214,9.14,-4.18,-23,1
1585955788,2020-04-04 01:16,39.08,995.06,1020.84,214,9.11,-4.09,-22,1
1585955848,2020-04-04 01:17,38.78,995.03,1020.81,214,9.17,-4.14,-22,1
1585955909,2020-04-04 01:18,38.75,995.05,1020.83,214,9.15,-4.17,-21,1
1585955969,2020-04-04 01:19,38.47,995.03,1020.81,214,9.16,-4.25,-22,1
1585956029,2020-04-04 01:20,39.13,995.01,1020.80,214,9.04,-4.13,-20,1
1585956089,2020-04-04 01:21,38.85,994.99,1020.78,214,9.01,-4.25,-21,1
1585956150,2020-04-04 01:22,38.78,995.03,1020.82,214,9.07,-4.22,-20,1
1585956210,2020-04-04 01:23,38.68,995.02,1020.80,214,8.97,-4.35,-21,1
1585956270,2020-04-04 01:24,38.81,995.07,1020.85,214,8.99,-4.29,-22,1
1585956331,2020-04-04 01:25,38.38,995.06,1020.85,214,9.00,-4.43,-21,1
1585956391,2020-04-04 01:26,38.57,995.06,1020.85,214,9.08,-4.29,-21,1
1585956451,2020-04-04 01:27,38.74,995.03,1020.82,214,9.09,-4.22,-22,1
1585956511,2020-04-04 01:28,38.56,995.11,1020.89,214,9.08,-4.29,-22,1
1585956572,2020-04-04 01:29,38.55,995.08,1020.86,214,9.07,-4.30,-20,1
1585956632,2020-04-04 01:30,38.86,995.08,1020.86,214,8.88,-4.37,-20,1
1585956692,2020-04-04 01:31,38.63,995.11,1020.89,214,9.00,-4.34,-19,1
1585956753,2020-04-04 01:32,38.72,995.09,1020.87,214,9.07,-4.25,-22,1
1585956813,2020-04-04 01:33,38.43,995.07,1020.85,214,9.09,-4.33,-22,1
1585956873,2020-04-04 01:34,38.85,995.08,1020.87,214,8.99,-4.27,-22,1
1585956933,2020-04-04 01:35,38.66,995.15,1020.93,214,9.00,-4.33,-23,1
1585956994,2020-04-04 01:36,38.87,995.12,1020.90,214,8.89,-4.36,-21,1
1585957054,2020-04-04 01:37,38.74,995.17,1020.96,214,9.01,-4.29,-21,1
1585957114,2020-04-04 01:38,38.77,995.18,1020.96,214,9.06,-4.24,-19,1
1585957174,2020-04-04 01:39,38.68,995.23,1021.01,214,9.03,-4.30,-21,1
1585957235,2020-04-04 01:40,38.67,995.16,1020.95,214,8.95,-4.37,-22,1
1585957295,2020-04-04 01:41,38.37,995.20,1020.98,214,8.98,-4.45,-21,1
1585957355,2020-04-04 01:42,38.58,995.22,1021.00,214,8.99,-4.37,-21,1
1585957416,2020-04-04 01:43,39.00,995.27,1021.05,214,8.70,-4.48,-22,1
1585957476,2020-04-04 01:44,38.65,995.28,1021.07,214,8.90,-4.42,-20,1
1585957536,2020-04-04 01:45,38.70,995.22,1021.00,214,8.95,-4.36,-22,1
1585957596,2020-04-04 01:46,38.63,995.25,1021.03,214,8.91,-4.42,-23,1
1585957657,2020-04-04 01:47,38.75,995.24,1021.02,214,8.93,-4.36,-18,1
1585957717,2020-04-04 01:48,38.68,995.31,1021.09,214,8.90,-4.41,-22,1
1585957777,2020-04-04 01:49,38.75,995.24,1021.03,214,8.80,-4.48,-25,1
1585957838,2020-04-04 01:50,39.21,995.32,1021.10,214,8.71,-4.40,-20,1
1585957898,2020-04-04 01:51,38.93,995.32,1021.10,214,8.81,-4.41,-20,1
1585957958,2020-04-04 01:52,38.83,995.33,1021.11,214,8.82,-4.43,-23,1
1585958018,2020-04-04 01:53,38.82,995.28,1021.07,214,8.80,-4.46,-31,1
1585958079,2020-04-04 01:54,39.23,995.30,1021.09,214,8.69,-4.41,-21,1
1585958139,2020-04-04 01:55,39.07,995.31,1021.10,214,8.76,-4.40,-21,1
1585958199,2020-04-04 01:56,39.24,995.33,1021.12,214,8.73,-4.38,-21,1
1585958260,2020-04-04 01:57,39.15,995.34,1021.13,214,8.75,-4.39,-22,1
1585958320,2020-04-04 01:58,39.02,995.30,1021.08,214,8.79,-4.40,-21,1
1585958380,2020-04-04 01:59,39.15,995.32,1021.10,214,8.81,-4.33,-22,1
1585958440,2020-04-04 02:00,39.33,995.35,1021.14,214,8.82,-4.26,-22,1
1585958501,2020-04-04 02:01,39.18,995.39,1021.17,214,8.84,-4.30,-21,1
1585958561,2020-04-04 02:02,39.25,995.40,1021.18,214,8.81,-4.30,-20,1
1585958621,2020-04-04 02:03,39.31,995.42,1021.21,214,8.83,-4.26,-20,1
1585958682,2020-04-04 02:04,39.22,995.39,1021.18,214,8.81,-4.31,-20,1
1585958742,2020-04-04 02:05,39.43,995.41,1021.20,214,8.82,-4.23,-21,1
1585958802,2020-04-04 02:06,39.54,995.41,1021.19,214,8.72,-4.28,-22,1
1585958862,2020-04-04 02:07,40.19,995.47,1021.25,214,8.67,-4.11,-22,1
1585958922,2020-04-04 02:08,39.78,995.46,1021.24,214,8.59,-4.32,-21,1
1585958982,2020-04-04 02:09,39.92,995.47,1021.26,214,8.52,-4.34,-22,1
1585959042,2020-04-04 02:10,39.63,995.45,1021.23,214,8.62,-4.34,-22,1
1585959102,2020-04-04 02:11,40.00,995.42,1021.20,214,8.56,-4.27,-23,1
1585959162,2020-04-04 02:12,40.10,995.48,1021.26,214,8.56,-4.24,-22,1
1585959222,2020-04-04 02:13,40.69,995.46,1021.24,214,8.37,-4.22,-21,1
1585959282,2020-04-04 02:14,40.30,995.51,1021.30,214,8.41,-4.31,-20,1
1585959342,2020-04-04 02:15,40.36,995.52,1021.30,214,8.48,-4.23,-22,1
1585959402,2020-04-04 02:16,40.26,995.49,1021.27,214,8.39,-4.34,-21,1
1585959463,2020-04-04 02:17,40.09,995.51,1021.29,214,8.50,-4.30,-22,1
1585959523,2020-04-04 02:18,40.47,995.53,1021.31,214,8.38,-4.28,-23,1
1585959583,2020-04-04 02:19,40.29,995.61,1021.39,214,8.48,-4.25,-21,1
1585959643,2020-04-04 02:20,40.29,995.52,1021.30,214,8.47,-4.26,-22,1
1585959703,2020-04-04 02:21,40.31,995.58,1021.37,214,8.50,-4.22,-23,1
1585959763,2020-04-04 02:22,40.55,995.65,1021.44,214,8.36,-4.27,-21,1
1585959823,2020-04-04 02:23,40.89,995.60,1021.38,214,8.18,-4.32,-21,1
1585959883,2020-04-04 02:24,40.97,995.63,1021.41,214,8.16,-4.31,-21,1
1585959943,2020-04-04 02:25,40.84,995.51,1021.29,214,8.32,-4.21,-20,1
1585960003,2020-04-04 02:26,40.55,995.59,1021.37,214,8.38,-4.25,-23,1
1585960063,2020-04-04 02:27,41.01,995.61,1021.40,214,8.29,-4.18,-22,1
1585960123,2020-04-04 02:28,40.49,995.60,1021.38,214,8.42,-4.24,-20,1
1585960184,2020-04-04 02:29,40.90,995.64,1021.42,214,8.35,-4.17,-21,1
1585960244,2020-04-04 02:30,40.79,995.67,1021.45,214,8.33,-4.22,-21,1
1585960304,2020-04-04 02:31,40.82,995.64,1021.42,214,8.30,-4.24,-21,1
1585960364,2020-04-04 02:32,40.91,995.66,1021.44,214,8.32,-4.19,-20,1
1585960424,2020-04-04 02:33,40.85,995.67,1021.46,214,8.35,-4.18,-23,1
1585960484,2020-04-04 02:34,41.34,995.72,1021.50,214,8.11,-4.24,-21,1
1585960544,2020-04-04 02:35,41.32,995.67,1021.45,214,8.17,-4.19,-22,1
1585960604,2020-04-04 02:36,41.16,995.68,1021.46,214,8.23,-4.19,-21,1
1585960664,2020-04-04 02:37,41.12,995.69,1021.48,214,8.26,-4.18,-21,1
1585960724,2020-04-04 02:38,41.24,995.66,1021.44,214,8.16,-4.23,-21,1
1585960784,2020-04-04 02:39,41.20,995.75,1021.53,214,8.19,-4.21,-22,1
1585960844,2020-04-04 02:40,41.53,995.72,1021.50,214,8.09,-4.20,-22,1
1585960905,2020-04-04 02:41,41.67,995.69,1021.48,214,8.12,-4.13,-20,1
1585960965,2020-04-04 02:42,41.44,995.70,1021.48,214,8.16,-4.16,-22,1
1585961025,2020-04-04 02:43,41.56,995.72,1021.50,214,8.10,-4.18,-20,1
1585961085,2020-04-04 02:44,41.83,995.64,1021.42,214,8.03,-4.16,-22,1
1585961145,2020-04-04 02:45,41.93,995.63,1021.41,214,7.96,-4.19,-21,1
1585961205,2020-04-04 02:46,41.90,995.74,1021.52,214,8.05,-4.12,-21,1
1585961265,2020-04-04 02:47,41.96,995.71,1021.50,214,8.10,-4.05,-21,1
1585961325,2020-04-04 02:48,41.66,995.74,1021.52,214,8.11,-4.14,-21,1
1585961385,2020-04-04 02:49,41.79,995.76,1021.55,214,8.08,-4.12,-21,1
1585961445,2020-04-04 02:50,41.77,995.77,1021.56,214,8.14,-4.08,-21,1
1585961505,2020-04-04 02:51,42.02,995.81,1021.59,214,8.05,-4.08,-22,1
1585961566,2020-04-04 02:52,42.08,995.81,1021.60,214,8.02,-4.09,-23,1
1585961626,2020-04-04 02:53,41.70,995.81,1021.59,214,8.16,-4.08,-22,1
1585961686,2020-04-04 02:54,41.49,995.84,1021.62,214,8.17,-4.14,-20,1
1585961746,2020-04-04 02:55,41.89,995.83,1021.62,214,8.14,-4.04,-21,1
1585961806,2020-04-04 02:56,41.86,995.87,1021.66,214,8.15,-4.04,-21,1
1585961866,2020-04-04 02:57,41.76,995.86,1021.64,214,8.18,-4.04,-21,1
1585961926,2020-04-04 02:58,41.70,995.91,1021.70,214,8.16,-4.08,-21,1
1585961986,2020-04-04 02:59,42.24,995.91,1021.70,214,8.07,-3.99,-21,1
1585962046,2020-04-04 03:00,42.29,995.87,1021.65,214,8.04,-4.00,-22,1
1585962106,2020-04-04 03:01,42.02,995.94,1021.72,214,8.14,-4.00,-23,1
1585962166,2020-04-04 03:02,42.00,995.94,1021.72,214,8.10,-4.04,-22,1
1585962290,2020-04-04 03:04,41.87,995.95,1021.74,214,8.15,-4.04,-20,1
1585962350,2020-04-04 03:05,42.25,995.99,1021.77,214,8.04,-4.01,-22,1
1585962410,2020-04-04 03:06,42.32,995.98,1021.77,214,8.11,-3.93,-22,1
1585962470,2020-04-04 03:07,42.36,995.96,1021.75,214,8.07,-3.95,-20,1
1585962531,2020-04-04 03:08,41.70,995.97,1021.75,214,8.10,-4.14,-22,1
1585962591,2020-04-04 03:09,42.81,995.98,1021.76,214,7.81,-4.05,-21,1
1585962651,2020-04-04 03:10,42.91,995.91,1021.69,214,7.80,-4.03,-22,1
1585962712,2020-04-04 03:11,42.67,995.97,1021.75,214,7.94,-3.97,-20,1
1585962772,2020-04-04 03:12,42.65,995.95,1021.73,214,7.94,-3.98,-20,1
1585962832,2020-04-04 03:13,42.69,995.95,1021.73,214,7.95,-3.96,-21,1
1585962892,2020-04-04 03:14,42.75,996.06,1021.84,214,7.80,-4.08,-21,1
1585962953,2020-04-04 03:15,42.83,995.96,1021.74,214,7.80,-4.05,-21,1
1585963013,2020-04-04 03:16,42.64,995.95,1021.73,214,7.86,-4.06,-20,1
1585963073,2020-04-04 03:17,42.68,995.94,1021.72,214,7.89,-4.01,-21,1
1585963133,2020-04-04 03:18,42.84,995.97,1021.75,214,7.85,-4.00,-21,1
1585963194,2020-04-04 03:19,42.87,995.95,1021.73,214,7.76,-4.07,-22,1
1585963254,2020-04-04 03:20,42.74,995.95,1021.73,214,7.85,-4.03,-20,1
1585963314,2020-04-04 03:21,43.00,995.97,1021.75,214,7.73,-4.06,-22,1
1585963375,2020-04-04 03:22,42.87,995.92,1021.70,214,7.87,-3.98,-19,1
1585963435,2020-04-04 03:23,42.92,995.97,1021.76,214,7.76,-4.06,-21,1
1585963495,2020-04-04 03:24,42.97,995.86,1021.65,214,7.78,-4.02,-20,1
1585963555,2020-04-04 03:25,42.37,995.92,1021.70,214,7.91,-4.10,-20,1
1585963616,2020-04-04 03:26,43.07,995.95,1021.74,214,7.77,-4.00,-21,1
1585963676,2020-04-04 03:27,42.82,995.96,1021.74,214,7.79,-4.06,-21,1
1585963736,2020-04-04 03:28,42.88,995.97,1021.75,214,7.81,-4.02,-20,1
1585963796,2020-04-04 03:29,42.86,995.95,1021.73,214,7.83,-4.01,-23,1
1585963857,2020-04-04 03:30,42.94,996.00,1021.78,214,7.74,-4.07,-20,1
1585963917,2020-04-04 03:31,43.27,995.95,1021.74,214,7.67,-4.03,-22,1
1585963977,2020-04-04 03:32,43.20,995.98,1021.76,214,7.68,-4.04,-21,1
1585964038,2020-04-04 03:33,42.88,995.99,1021.77,214,7.82,-4.02,-21,1
1585964098,2020-04-04 03:34,42.82,996.00,1021.78,214,7.89,-3.97,-20,1
1585964158,2020-04-04 03:35,42.45,996.00,1021.79,214,7.93,-4.05,-21,1
1585964218,2020-04-04 03:36,43.03,996.02,1021.80,214,7.77,-4.01,-22,1
1585964279,2020-04-04 03:37,42.91,996.05,1021.84,214,7.89,-3.94,-21,1
1585964339,2020-04-04 03:38,42.74,996.02,1021.80,214,7.84,-4.04,-20,1
1585964399,2020-04-04 03:39,42.78,996.04,1021.82,214,7.89,-3.98,-21,1
1585964460,2020-04-04 03:41,42.90,995.98,1021.76,214,7.86,-3.98,-22,1
1585964520,2020-04-04 03:42,42.98,996.01,1021.79,214,7.77,-4.03,-21,1
1585964580,2020-04-04 03:43,43.02,996.04,1021.82,214,7.71,-4.07,-21,1
1585964640,2020-04-04 03:44,42.92,995.97,1021.75,214,7.74,-4.08,-22,1
1585964701,2020-04-04 03:45,43.08,996.04,1021.82,214,7.77,-4.00,-19,1
1585964761,2020-04-04 03:46,43.01,996.02,1021.80,214,7.76,-4.03,-21,1
1585964821,2020-04-04 03:47,43.16,996.00,1021.79,214,7.73,-4.01,-21,1
1585964882,2020-04-04 03:48,42.96,996.02,1021.80,214,7.75,-4.05,-20,1
1585964942,2020-04-04 03:49,43.48,996.10,1021.88,214,7.67,-3.97,-21,1
1585965002,2020-04-04 03:50,43.34,996.10,1021.88,214,7.63,-4.05,-23,1
1585965062,2020-04-04 03:51,42.94,996.10,1021.88,214,7.70,-4.11,-20,1
1585965123,2020-04-04 03:52,42.91,996.11,1021.89,214,7.73,-4.09,-19,1
1585965183,2020-04-04 03:53,43.00,996.14,1021.92,214,7.59,-4.19,-22,1
1585965243,2020-04-04 03:54,43.08,996.07,1021.86,214,7.65,-4.11,-21,1
1585965303,2020-04-04 03:55,42.92,996.14,1021.92,214,7.64,-4.17,-22,1
1585965364,2020-04-04 03:56,43.86,996.13,1021.92,214,7.39,-4.11,-22,1
1585965424,2020-04-04 03:57,43.51,996.16,1021.95,214,7.49,-4.12,-23,1
1585965484,2020-04-04 03:58,43.71,996.18,1021.97,214,7.44,-4.11,-21,1
1585965545,2020-04-04 03:59,43.74,996.09,1021.88,214,7.46,-4.08,-21,1
1585965605,2020-04-04 04:00,43.73,996.17,1021.95,214,7.47,-4.07,-23,1
1585965665,2020-04-04 04:01,43.58,996.13,1021.91,214,7.50,-4.09,-21,1
1585965725,2020-04-04 04:02,43.67,996.17,1021.96,214,7.50,-4.06,-20,1
1585965786,2020-04-04 04:03,43.75,996.22,1022.01,214,7.49,-4.05,-21,1
1585965846,2020-04-04 04:04,43.56,996.29,1022.07,214,7.46,-4.13,-20,1
1585965906,2020-04-04 04:05,43.77,996.25,1022.04,214,7.39,-4.13,-21,1
1585965966,2020-04-04 04:06,44.31,996.33,1022.12,214,7.21,-4.14,-20,1
1585966027,2020-04-04 04:07,43.94,996.40,1022.19,214,7.30,-4.17,-23,1
1585966087,2020-04-04 04:08,44.15,996.35,1022.14,214,7.24,-4.15,-21,1
1585966147,2020-04-04 04:09,44.17,996.43,1022.22,214,7.24,-4.15,-23,1
1585966208,2020-04-04 04:10,44.28,996.48,1022.26,214,7.21,-4.14,-23,1
1585966268,2020-04-04 04:11,44.29,996.43,1022.22,214,7.24,-4.11,-19,1
1585966328,2020-04-04 04:12,44.45,996.41,1022.20,214,7.20,-4.10,-19,1
1585966388,2020-04-04 04:13,44.39,996.37,1022.15,214,7.28,-4.05,-22,1
1585966449,2020-04-04 04:14,43.99,996.42,1022.21,214,7.34,-4.11,-21,1
1585966509,2020-04-04 04:15,44.25,996.49,1022.27,214,7.29,-4.08,-21,1
1585966569,2020-04-04 04:16,44.08,996.51,1022.29,214,7.30,-4.12,-22,1
1585966630,2020-04-04 04:17,44.21,996.51,1022.30,214,7.34,-4.05,-21,1
1585966690,2020-04-04 04:18,44.36,996.55,1022.34,214,7.27,-4.07,-23,1
1585966750,2020-04-04 04:19,44.25,996.55,1022.34,214,7.27,-4.10,-21,1
1585966810,2020-04-04 04:20,44.24,996.48,1022.27,214,7.28,-4.09,-21,1
1585966871,2020-04-04 04:21,44.60,996.58,1022.36,214,7.25,-4.01,-21,1
1585966931,2020-04-04 04:22,44.34,996.50,1022.29,214,7.25,-4.09,-23,1
1585966991,2020-04-04 04:23,44.28,996.50,1022.28,214,7.24,-4.12,-21,1
1585967051,2020-04-04 04:24,44.49,996.52,1022.30,214,7.25,-4.05,-22,1
1585967112,2020-04-04 04:25,44.27,996.58,1022.36,214,7.28,-4.08,-21,1
1585967172,2020-04-04 04:26,44.57,996.61,1022.39,214,7.20,-4.07,-20,1
1585967232,2020-04-04 04:27,44.59,996.58,1022.37,214,7.19,-4.07,-21,1
1585967293,2020-04-04 04:28,44.54,996.58,1022.36,214,7.17,-4.10,-20,1
1585967353,2020-04-04 04:29,44.79,996.60,1022.39,214,7.08,-4.11,-24,1
1585967413,2020-04-04 04:30,44.90,996.61,1022.39,214,7.05,-4.11,-20,1
1585967473,2020-04-04 04:31,44.78,996.59,1022.37,214,7.08,-4.11,-21,1
1585967534,2020-04-04 04:32,44.92,996.61,1022.40,214,7.08,-4.07,-21,1
1585967594,2020-04-04 04:33,45.18,996.61,1022.39,214,6.94,-4.12,-20,1
1585967654,2020-04-04 04:34,45.23,996.65,1022.43,214,6.99,-4.06,-20,1
1585967715,2020-04-04 04:35,45.37,996.64,1022.42,214,6.94,-4.07,-20,1
1585967775,2020-04-04 04:36,45.29,996.61,1022.39,214,6.92,-4.11,-20,1
1585967835,2020-04-04 04:37,45.43,996.70,1022.49,214,6.90,-4.08,-20,1
1585967895,2020-04-04 04:38,45.67,996.70,1022.48,214,6.86,-4.05,-23,1
1585967956,2020-04-04 04:39,45.69,996.73,1022.52,214,6.83,-4.07,-22,1
1585968016,2020-04-04 04:40,45.65,996.77,1022.56,214,6.83,-4.09,-22,1
1585968076,2020-04-04 04:41,45.61,996.81,1022.59,214,6.83,-4.10,-22,1
1585968137,2020-04-04 04:42,45.75,996.81,1022.59,214,6.73,-4.15,-22,1
1585968197,2020-04-04 04:43,45.67,996.80,1022.59,214,6.73,-4.17,-20,1
1585968257,2020-04-04 04:44,45.89,996.82,1022.60,214,6.70,-4.13,-19,1
1585968317,2020-04-04 04:45,45.72,996.84,1022.63,214,6.74,-4.15,-20,1
1585968378,2020-04-04 04:46,45.98,996.86,1022.64,214,6.67,-4.14,-21,1
1585968438,2020-04-04 04:47,45.61,996.93,1022.71,214,6.65,-4.26,-21,1
1585968498,2020-04-04 04:48,45.98,996.90,1022.69,214,6.65,-4.15,-20,1
1585968559,2020-04-04 04:49,45.90,996.89,1022.67,214,6.65,-4.18,-20,1
1585968619,2020-04-04 04:50,46.21,996.90,1022.69,214,6.62,-4.12,-20,1
1585968679,2020-04-04 04:51,46.03,996.93,1022.72,214,6.54,-4.24,-23,1
1585968739,2020-04-04 04:52,46.18,996.95,1022.73,214,6.54,-4.20,-18,1
1585968800,2020-04-04 04:53,46.09,996.93,1022.71,214,6.51,-4.25,-21,1
1585968860,2020-04-04 04:54,46.06,996.94,1022.73,214,6.53,-4.24,-23,1
1585968920,2020-04-04 04:55,46.14,996.97,1022.75,214,6.54,-4.21,-20,1
1585968980,2020-04-04 04:56,46.34,996.95,1022.74,214,6.50,-4.19,-20,1
1585969041,2020-04-04 04:57,46.30,996.95,1022.73,214,6.45,-4.25,-23,1
1585969101,2020-04-04 04:58,46.59,996.96,1022.74,214,6.37,-4.24,-21,1
1585969161,2020-04-04 04:59,46.76,996.87,1022.66,214,6.40,-4.16,-21,1
1585969222,2020-04-04 05:00,46.63,996.97,1022.76,214,6.41,-4.19,-21,1
1585969282,2020-04-04 05:01,46.68,996.96,1022.75,214,6.40,-4.18,-20,1
1585969342,2020-04-04 05:02,46.38,996.97,1022.75,214,6.36,-4.30,-21,1
1585969402,2020-04-04 05:03,46.62,996.94,1022.72,214,6.38,-4.22,-21,1
1585969463,2020-04-04 05:04,46.71,997.00,1022.78,214,6.30,-4.27,-23,1
1585969523,2020-04-04 05:05,46.97,997.02,1022.81,214,6.25,-4.24,-21,1
1585969583,2020-04-04 05:06,46.92,997.01,1022.80,214,6.25,-4.25,-22,1
1585969644,2020-04-04 05:07,46.95,997.04,1022.82,214,6.28,-4.22,-20,1
1585969704,2020-04-04 05:08,46.89,997.05,1022.84,214,6.29,-4.22,-22,1
1585969764,2020-04-04 05:09,46.85,997.06,1022.84,214,6.26,-4.26,-20,1
1585969824,2020-04-04 05:10,46.91,997.05,1022.84,214,6.26,-4.25,-22,1
1585969885,2020-04-04 05:11,46.99,997.09,1022.87,214,6.27,-4.21,-21,1
1585969945,2020-04-04 05:12,47.09,997.07,1022.85,214,6.25,-4.21,-23,1
1585970005,2020-04-04 05:13,46.95,997.09,1022.87,214,6.20,-4.29,-22,1
1585970065,2020-04-04 05:14,47.00,997.06,1022.84,214,6.21,-4.27,-21,1
1585970126,2020-04-04 05:15,47.33,997.11,1022.89,214,6.20,-4.18,-21,1
1585970186,2020-04-04 05:16,47.25,997.12,1022.90,214,6.15,-4.25,-20,1
1585970246,2020-04-04 05:17,47.24,997.10,1022.88,214,6.16,-4.25,-21,1
1585970307,2020-04-04 05:18,47.63,997.18,1022.96,214,5.98,-4.30,-20,1
1585970367,2020-04-04 05:19,47.94,997.14,1022.92,214,5.86,-4.33,-19,1
1585970427,2020-04-04 05:20,47.62,997.23,1023.02,214,6.02,-4.27,-20,1
1585970487,2020-04-04 05:21,47.77,997.20,1022.98,214,5.95,-4.29,-20,1
1585970548,2020-04-04 05:22,47.74,997.12,1022.91,214,5.99,-4.26,-22,1
1585970608,2020-04-04 05:23,47.77,997.17,1022.95,214,5.93,-4.31,-20,1
1585970668,2020-04-04 05:24,47.70,997.19,1022.97,214,6.01,-4.25,-20,1
1585970729,2020-04-04 05:25,47.72,997.24,1023.02,214,6.00,-4.26,-20,1
1585970789,2020-04-04 05:26,47.66,997.20,1022.98,214,6.00,-4.28,-22,1
1585970849,2020-04-04 05:27,47.90,997.21,1022.99,214,5.92,-4.28,-19,1
1585970909,2020-04-04 05:28,47.90,997.25,1023.03,214,5.92,-4.28,-20,1
1585970970,2020-04-04 05:29,47.92,997.27,1023.05,214,5.92,-4.27,-22,1
1585971030,2020-04-04 05:30,48.39,997.21,1022.99,214,5.79,-4.26,-22,1
1585971090,2020-04-04 05:31,47.93,997.15,1022.94,214,5.85,-4.34,-20,1
1585971150,2020-04-04 05:32,47.89,997.25,1023.03,214,5.88,-4.32,-21,1
1585971211,2020-04-04 05:33,48.13,997.26,1023.04,214,5.89,-4.25,-21,1
1585971271,2020-04-04 05:34,47.80,997.26,1023.05,214,5.90,-4.33,-20,1
1585971331,2020-04-04 05:35,47.91,997.14,1022.93,214,5.80,-4.39,-21,1
1585971392,2020-04-04 05:36,48.00,997.24,1023.02,214,5.84,-4.33,-20,1
1585971452,2020-04-04 05:37,47.92,997.22,1023.00,214,5.87,-4.32,-21,1
1585971512,2020-04-04 05:38,48.14,997.25,1023.03,214,5.75,-4.37,-21,1
1585971572,2020-04-04 05:39,48.18,997.26,1023.05,214,5.73,-4.38,-21,1
1585971633,2020-04-04 05:40,48.58,997.25,1023.03,214,5.57,-4.42,-21,1
1585971693,2020-04-04 05:41,48.66,997.32,1023.10,214,5.62,-4.35,-22,1
1585971753,2020-04-04 05:42,48.66,997.30,1023.08,214,5.65,-4.32,-20,1
1585971813,2020-04-04 05:43,48.78,997.32,1023.10,214,5.61,-4.33,-21,1